Flag for Nigeria Weather past 2 weeks in Enugu, Nigeria

Now
77 °F

Passing clouds.


Feels Like: 78 °F
Forecast: 72 / 86 °F
Wind: 3 mph from Southwest

Location: Malabo/Fernando Poo

Current Time: Sep 19, 2014 at 1:12:08 AM

Latest Report: Sep 19, 2014 at 12:00 AM


Visibility: N/A

Pressure: 29.92 "Hg

Humidity: 89%

Dew point: 73 °F

Location of EnuguLocation

Historic Weather in Enugu — Graph

°F

Enugu temperature yesterday

Maximum temperature yesterday: 82 °F (at 4:00 PM)
Minimum temperature yesterday: 73 °F (at 5:00 AM)
Average temperature yesterday: 77 °F

Past Weeks' High & Low Weather Summary

 TemperatureHumidityPressure
High84 °F (Sep 4, 11:00 AM)100% (Sep 6, 1:00 AM)30.04 "Hg (Sep 6, 1:00 AM)
Low72 °F (Sep 4, 3:00 AM)70% (Sep 4, 10:00 AM)29.83 "Hg (Sep 5, 4:00 PM)
Average78 °F87%29.92 "Hg
* Reported Midnight between Sep 3 and Sep 4 — Midnight between Sep 18 and Sep 19, Enugu, Weather by CustomWeather, © 2014

Note: Actual official high and low records may vary slightly from our data, if they occured in-between our weather recording intervals... More about our weather records

Advertising

Enugu weather history for previous 24 hours

 ConditionsComfort  
Time TempWeatherWind HumidityBarometerVisibility
12:00 AM
Sep 19
77 °FPassing clouds.3 mph89%29.92 "HgN/A
11:00 PM
Sep 18
77 °FPassing clouds.6 mph83%29.92 "HgN/A
10:00 PM77 °FPassing clouds.6 mph83%29.89 "HgN/A
9:00 PM75 °FPassing clouds.3 mph94%29.89 "HgN/A
8:00 PM77 °FPassing clouds.5 mph89%29.89 "HgN/A
7:00 PM79 °FPassing clouds.5 mph84%29.86 "HgN/A
6:00 PM79 °FPartly sunny.7 mph84%29.86 "HgN/A
5:00 PM82 °FPartly sunny.5 mph74%29.89 "HgN/A
4:00 PM82 °FPartly sunny.5 mph74%29.92 "HgN/A
3:30 PM81 °FPartly sunny.5 mph89%29.92 "HgN/A
3:00 PM81 °FPartly sunny.6 mph89%29.92 "HgN/A
2:00 PM81 °FPassing clouds.7 mph89%29.92 "HgN/A
1:00 PM79 °FScattered clouds.7 mph89%29.95 "HgN/A
12:00 PM79 °FThunderstorms. Broken clouds.6 mph89%29.95 "Hg5 mi
11:00 AM75 °FThunderstorms. Broken clouds.3 mph94%29.92 "Hg5 mi
10:00 AM77 °FDrizzle. Broken clouds.3 mph89%29.92 "Hg4 mi
9:00 AM77 °FThunderstorms. Partly sunny.3 mph94%29.89 "Hg4 mi
8:00 AM75 °FPartly sunny.3 mph94%29.89 "Hg5 mi
7:00 AM75 °FPartly sunny.7 mph94%29.89 "Hg5 mi
6:00 AM73 °FThunderstorms. Passing clouds.7 mph94%29.89 "Hg5 mi
5:00 AM73 °FThunderstorms. Passing clouds.6 mph94%29.89 "Hg5 mi
4:00 AM75 °FThunderstorms. Passing clouds.7 mph94%29.92 "Hg5 mi
3:00 AMN/APassing clouds.7 mphN/A29.92 "Hg5 mi
1:00 AM75 °FPassing clouds.7 mph94%29.92 "Hg5 mi
Weather by CustomWeather, © 2014

See weather overviewHow to use our weather pages